Weather History for Bentonville, AR

Change the Weather History Date:

Monday, November 11, 2013

  Actual Average Record
Temperature  
Mean Temperature 54 °F -  
Max Temperature 66 °F 56 °F 78 °F (1949)
Min Temperature 42 °F 34 °F 14 °F (1950)
Degree Days  
Heating Degree Days 11    
Growing Degree Days 4 (Base 50)    
Moisture  
Dew Point 44 °F    
Average Humidity 68    
Maximum Humidity 82    
Minimum Humidity 52    
Precipitation  
Precipitation 0.00 in - - ()
Sea Level Pressure  
Sea Level Pressure 30.25 in    
Wind  
Wind Speed 5 mph (SW)    
Max Wind Speed 22 mph    
Max Gust Speed 29 mph    
Visibility 9 miles    
Events      
Averages and records for this station are not official NWS values.
T = Trace of Precipitation, MM = Missing Value Source: NWS Daily Summary

Daily Weather History Graph

Daily Weather History Graph

Search for Another Location

Airport:

Trip Planner

Search our weather history database for the weather conditions in past years. The results will help you decide how hot, cold, wet, or windy it might be!

Date:

Astronomy

Nov. 11, 2013 Rise Set
Actual Time 6:50 AM CST 5:11 PM CST
Civil Twilight 6:23 AM CST 5:38 PM CST
Nautical Twilight 5:52 AM CST 6:09 PM CST
Astronomical Twilight 5:21 AM CST 6:39 PM CST
Moon 1:43 PM CST (11/11) 12:46 AM CST (11/11)
Length of Visible Light 11h 15m
Length of Day
10h 20m
Waxing Gibbous, 66% of the Moon is Illuminated
Nov 11
Waxing Gibbous
Nov 17
Full
Nov 25
Last Quarter
Dec 2
New
Dec 9
First Quarter

Hourly Weather History & Observations

Time (CST) Temp. Windchill Dew Point Humidity Pressure Visibility Wind Dir Wind Speed Gust Speed Precip Events Conditions
12:15 AM 48.2 °F - 39.2 °F 71% 30.26 in 10.0 mi Calm Calm - N/A   Mostly Cloudy
12:35 AM 48.2 °F - 39.2 °F 71% 30.26 in 10.0 mi SE 3.5 mph - N/A   Overcast
12:55 AM 48.2 °F - 39.2 °F 71% 30.26 in 10.0 mi SSE 4.6 mph - N/A   Overcast
1:15 AM 46.4 °F 45.2 °F 39.2 °F 76% 30.26 in 10.0 mi SSE 3.5 mph - N/A   Mostly Cloudy
1:35 AM 46.4 °F 45.2 °F 37.4 °F 71% 30.25 in 10.0 mi SSE 3.5 mph - N/A   Scattered Clouds
1:55 AM 46.4 °F - 39.2 °F 76% 30.26 in 10.0 mi Calm Calm - N/A   Mostly Cloudy
2:15 AM 46.4 °F - 39.2 °F 76% 30.25 in 10.0 mi Calm Calm - N/A   Scattered Clouds
2:35 AM 46.4 °F 45.2 °F 37.4 °F 71% 30.25 in 10.0 mi SE 3.5 mph - N/A   Clear
2:55 AM 44.6 °F - 37.4 °F 76% 30.24 in 10.0 mi Calm Calm - N/A   Clear
3:15 AM 46.4 °F 45.2 °F 39.2 °F 76% 30.24 in 10.0 mi SE 3.5 mph - N/A   Mostly Cloudy
3:35 AM 46.4 °F - 41.0 °F 81% 30.24 in 10.0 mi Calm Calm - N/A   Overcast
3:55 AM 48.2 °F - 41.0 °F 76% 30.24 in 10.0 mi SE 3.5 mph - N/A   Overcast
4:15 AM 48.2 °F - 41.0 °F 76% 30.24 in 10.0 mi Calm Calm - N/A   Overcast
4:35 AM 48.2 °F - 39.2 °F 71% 30.24 in 3.0 mi SSE 4.6 mph - N/A   Overcast
4:55 AM 48.2 °F - 41.0 °F 76% 30.24 in 10.0 mi SSE 3.5 mph - N/A   Overcast
5:15 AM 48.2 °F - 41.0 °F 76% 30.24 in 5.0 mi SSE 4.6 mph - N/A   Overcast
5:35 AM 48.2 °F - 41.0 °F 76% 30.24 in 0.8 mi South 3.5 mph - N/A   Overcast
5:55 AM 48.2 °F - 41.0 °F 76% 30.24 in 0.8 mi SSE 4.6 mph - N/A   Overcast
6:15 AM 48.2 °F - 39.2 °F 71% 30.23 in 0.8 mi SSE 3.5 mph - N/A   Overcast
6:35 AM 48.2 °F - 39.2 °F 71% 30.24 in 0.5 mi SSE 3.5 mph - N/A   Overcast
6:55 AM 48.2 °F - 41.0 °F 76% 30.25 in 0.2 mi SSE 3.5 mph - N/A   Overcast
7:15 AM 48.2 °F - 42.8 °F 82% 30.25 in 9.0 mi SSE 3.5 mph - N/A   Overcast
7:35 AM 48.2 °F - 42.8 °F 82% 30.26 in 4.0 mi Calm Calm - N/A   Overcast
7:55 AM 50.0 °F - 42.8 °F 76% 30.26 in 4.0 mi Calm Calm - N/A   Overcast
8:15 AM 51.8 °F - 42.8 °F 71% 30.27 in 1.5 mi SSE 3.5 mph - N/A   Overcast
8:35 AM 51.8 °F - 42.8 °F 71% 30.26 in 2.0 mi SSE 3.5 mph - N/A   Overcast
8:55 AM 53.6 °F - 42.8 °F 67% 30.26 in 1.5 mi South 4.6 mph - N/A   Overcast
9:15 AM 53.6 °F - 42.8 °F 67% 30.27 in 10.0 mi SSW 5.8 mph - N/A   Overcast
9:35 AM 55.4 °F - 42.8 °F 63% 30.26 in 10.0 mi South 4.6 mph - N/A   Overcast
9:55 AM 55.4 °F - 42.8 °F 63% 30.26 in 10.0 mi SW 6.9 mph - N/A   Overcast
10:15 AM 57.2 °F - 44.6 °F 63% 30.26 in 10.0 mi SW 5.8 mph - N/A   Overcast
10:35 AM 57.2 °F - 44.6 °F 63% 30.26 in 10.0 mi SSW 6.9 mph - N/A   Overcast
10:55 AM 59.0 °F - 46.4 °F 63% 30.25 in 10.0 mi SW 9.2 mph - N/A   Overcast
11:15 AM 60.8 °F - 46.4 °F 59% 30.25 in 10.0 mi WSW 6.9 mph - N/A   Overcast
11:35 AM 60.8 °F - 46.4 °F 59% 30.24 in 10.0 mi WSW 6.9 mph - N/A   Overcast
11:55 AM 60.8 °F - 46.4 °F 59% 30.23 in 10.0 mi SW 9.2 mph - N/A   Overcast
12:15 PM 60.8 °F - 44.6 °F 55% 30.22 in 10.0 mi WSW 8.1 mph - N/A   Overcast
12:35 PM 62.6 °F - 44.6 °F 52% 30.22 in 10.0 mi SW 8.1 mph - N/A   Overcast
12:55 PM 62.6 °F - 44.6 °F 52% 30.21 in 10.0 mi SW 5.8 mph - N/A   Mostly Cloudy
1:15 PM 62.6 °F - 46.4 °F 55% 30.20 in 10.0 mi WSW 10.4 mph - N/A   Overcast
1:35 PM 64.4 °F - 46.4 °F 52% 30.20 in 10.0 mi WSW 10.4 mph - N/A   Overcast
1:55 PM 64.4 °F - 46.4 °F 52% 30.19 in 10.0 mi West 6.9 mph - N/A   Mostly Cloudy
2:15 PM 64.4 °F - 48.2 °F 56% 30.19 in 10.0 mi SW 9.2 mph - N/A   Partly Cloudy
2:35 PM 66.2 °F - 48.2 °F 52% 30.18 in 10.0 mi SW 8.1 mph - N/A   Mostly Cloudy
2:55 PM 64.4 °F - 48.2 °F 56% 30.18 in 10.0 mi WSW 8.1 mph - N/A   Overcast
3:15 PM 64.4 °F - 48.2 °F 56% 30.18 in 10.0 mi WSW 6.9 mph - N/A   Overcast
3:35 PM 64.4 °F - 48.2 °F 56% 30.18 in 10.0 mi WSW 4.6 mph - N/A   Overcast
3:55 PM 64.4 °F - 48.2 °F 56% 30.19 in 10.0 mi SW 3.5 mph - N/A   Overcast
4:15 PM 64.4 °F - 48.2 °F 56% 30.19 in 10.0 mi WSW 5.8 mph - N/A   Overcast
4:35 PM 62.6 °F - 50.0 °F 63% 30.18 in 10.0 mi WSW 3.5 mph - N/A   Overcast
4:55 PM 62.6 °F - 48.2 °F 59% 30.18 in 10.0 mi NW 3.5 mph - N/A   Overcast
5:15 PM 62.6 °F - 50.0 °F 63% 30.19 in 10.0 mi WNW 3.5 mph - N/A   Overcast
5:35 PM 62.6 °F - 48.2 °F 59% 30.20 in 10.0 mi NNW 5.8 mph - N/A   Overcast
5:55 PM 62.6 °F - 48.2 °F 59% 30.20 in 10.0 mi NNW 5.8 mph - N/A   Overcast
6:15 PM 62.6 °F - 48.2 °F 59% 30.21 in 10.0 mi North 5.8 mph - N/A   Overcast
6:35 PM 60.8 °F - 48.2 °F 63% 30.22 in 10.0 mi NNW 6.9 mph - N/A   Overcast
6:55 PM 60.8 °F - 48.2 °F 63% 30.23 in 10.0 mi North 6.9 mph - N/A   Overcast
7:15 PM 60.8 °F - 50.0 °F 68% 30.23 in 10.0 mi North 10.4 mph - N/A   Mostly Cloudy
7:35 PM 60.8 °F - 50.0 °F 68% 30.24 in 10.0 mi North 9.2 mph - N/A   Overcast
7:55 PM 59.0 °F - 50.0 °F 72% 30.24 in 10.0 mi North 8.1 mph - N/A   Mostly Cloudy
8:15 PM 59.0 °F - 50.0 °F 72% 30.25 in 10.0 mi NNW 6.9 mph - N/A   Overcast
8:35 PM 59.0 °F - 50.0 °F 72% 30.26 in 10.0 mi North 10.4 mph - N/A   Overcast
8:55 PM 57.2 °F - 50.0 °F 77% 30.27 in 10.0 mi North 20.7 mph 28.8 mph N/A   Overcast
9:15 PM 51.8 °F - 44.6 °F 76% 30.30 in 10.0 mi North 21.9 mph 27.6 mph N/A   Overcast
9:35 PM 46.4 °F 39.5 °F 41.0 °F 81% 30.32 in 10.0 mi North 17.3 mph 25.3 mph N/A   Overcast
9:55 PM 46.4 °F 38.7 °F 39.2 °F 76% 30.33 in 10.0 mi North 20.7 mph - N/A   Overcast
10:15 PM 44.6 °F 37.2 °F 39.2 °F 81% 30.35 in 10.0 mi NNE 17.3 mph 26.5 mph N/A   Overcast
10:35 PM 44.6 °F 38.1 °F 39.2 °F 81% 30.35 in 10.0 mi North 13.8 mph 21.9 mph N/A   Overcast
10:55 PM 44.6 °F 37.8 °F 37.4 °F 76% 30.37 in 10.0 mi NNE 15.0 mph - N/A   Overcast
11:15 PM 42.8 °F 34.3 °F 35.6 °F 76% 30.38 in 10.0 mi North 19.6 mph 28.8 mph N/A   Overcast
11:35 PM 42.8 °F 34.8 °F 35.6 °F 76% 30.39 in 10.0 mi North 17.3 mph 23.0 mph N/A   Overcast
11:55 PM 42.8 °F 34.5 °F 35.6 °F 76% 30.40 in 10.0 mi NNE 18.4 mph - N/A   Overcast